When you browse on this site, cookies collect data to enhance your experience and personalize the content and advertising you see.
Visit our Privacy Policy to learn more. By continuing to use the site, you agree to this use of cookies and data.
  • In Portugal
  • List of Countries
  • For 7 days
  • Water Temperature
  • Weather Map
  • Weather Widgets
  • user-avatar
    Login

    Hourly Weather Kranevo

    Today, 1 April, Wednesday

    Time Temperature Precipitation Wind Pressure Humidity
    00:00 +1°C° 0 mm 5 mps 760 mmHg 50%
    01:00 +1°C° 0 mm 6 mps 760 mmHg 50%
    02:00 +1°C° 0 mm 6 mps 760 mmHg 50%
    03:00 -1°C° 0 mm 6 mps 760 mmHg 54%
    04:00 -1°C° 0 mm 7 mps 760 mmHg 58%
    05:00 -1°C° 0 mm 7 mps 760 mmHg 62%
    06:00 0°C° 0 mm 7 mps 760 mmHg 61%
    07:00 0°C° 0 mm 7 mps 760 mmHg 60%
    08:00 +2°C° 0 mm 7 mps 760 mmHg 60%
    09:00 +2°C° 0.1 mm 7 mps 760 mmHg 67%
    10:00 +2°C° 0.1 mm 7 mps 760 mmHg 74%
    11:00 +2°C° 0.1 mm 7 mps 760 mmHg 81%
    12:00 +2°C° 0.1 mm 7 mps 760 mmHg 78%
    13:00 +3°C° 0.1 mm 7 mps 760 mmHg 75%
    14:00 +3°C° 0.1 mm 7 mps 760 mmHg 72%
    15:00 +3°C° 0 mm 7 mps 760 mmHg 69%
    16:00 +3°C° 0 mm 7 mps 759 mmHg 66%
    17:00 +3°C° 0 mm 6 mps 759 mmHg 63%
    18:00 +2°C° 0 mm 6 mps 759 mmHg 65%
    19:00 +1°C° 0 mm 6 mps 759 mmHg 68%
    20:00 0°C° 0 mm 5 mps 759 mmHg 70%
    21:00 0°C° 0 mm 5 mps 759 mmHg 69%
    22:00 +1°C° 0 mm 5 mps 759 mmHg 68%
    23:00 +1°C° 0 mm 5 mps 759 mmHg 67%

    Tomorrow, 2 April, Thursday

    Time Temperature Precipitation Wind Pressure Humidity
    00:00 +1°C° 0 mm 5 mps 759 mmHg 69%
    01:00 0°C° 0 mm 5 mps 758 mmHg 70%
    02:00 0°C° 0 mm 5 mps 758 mmHg 71%
    03:00 0°C° 0 mm 4 mps 758 mmHg 71%
    04:00 0°C° 0 mm 4 mps 758 mmHg 71%
    05:00 0°C° 0 mm 4 mps 758 mmHg 71%
    06:00 +1°C° 0 mm 5 mps 758 mmHg 69%
    07:00 +2°C° 0 mm 5 mps 758 mmHg 67%
    08:00 +4°C° 0 mm 6 mps 758 mmHg 65%
    09:00 +4°C° 0 mm 6 mps 758 mmHg 64%
    10:00 +5°C° 0 mm 6 mps 757 mmHg 63%
    11:00 +6°C° 0 mm 7 mps 757 mmHg 62%
    12:00 +6°C° 0 mm 7 mps 757 mmHg 58%
    13:00 +8°C° 0 mm 7 mps 757 mmHg 54%
    14:00 +8°C° 0 mm 7 mps 757 mmHg 51%
    15:00 +8°C° 0 mm 7 mps 756 mmHg 52%
    16:00 +6°C° 0 mm 7 mps 756 mmHg 53%
    17:00 +5°C° 0 mm 7 mps 755 mmHg 54%
    18:00 +4°C° 0 mm 6 mps 756 mmHg 60%
    19:00 +3°C° 0 mm 5 mps 756 mmHg 66%
    20:00 +3°C° 0 mm 4 mps 756 mmHg 72%
    21:00 +1°C° 0 mm 4 mps 756 mmHg 74%
    22:00 +2°C° 0 mm 3 mps 756 mmHg 75%
    23:00 +1°C° 0 mm 3 mps 756 mmHg 77%

    Day after tomorrow, 3 April, Friday

    Time Temperature Precipitation Wind Pressure Humidity
    00:00 +1°C° 0 mm 3 mps 756 mmHg 76%
    01:00 +1°C° 0 mm 3 mps 756 mmHg 75%
    02:00 +2°C° 0 mm 2 mps 756 mmHg 75%
    03:00 +1°C° 0 mm 2 mps 756 mmHg 73%
    04:00 +1°C° 0 mm 2 mps 756 mmHg 71%
    05:00 +1°C° 0 mm 2 mps 756 mmHg 69%
    06:00 +3°C° 0 mm 2 mps 756 mmHg 62%
    07:00 +4°C° 0 mm 2 mps 756 mmHg 56%
    08:00 +7°C° 0 mm 1 mps 757 mmHg 50%
    09:00 +9°C° 0 mm 1 mps 757 mmHg 46%
    10:00 +10°C° 0 mm 1 mps 757 mmHg 42%
    11:00 +12°C° 0 mm 1 mps 757 mmHg 38%
    12:00 +12°C° 0 mm 2 mps 757 mmHg 39%
    13:00 +12°C° 0 mm 2 mps 757 mmHg 41%
    14:00 +12°C° 0 mm 3 mps 757 mmHg 43%
    15:00 +11°C° 0 mm 3 mps 756 mmHg 46%
    16:00 +11°C° 0 mm 3 mps 756 mmHg 48%
    17:00 +10°C° 0 mm 3 mps 756 mmHg 51%
    18:00 +9°C° 0 mm 3 mps 756 mmHg 55%
    19:00 +7°C° 0 mm 3 mps 757 mmHg 59%
    20:00 +5°C° 0 mm 3 mps 757 mmHg 63%
    21:00 +5°C° 0 mm 3 mps 758 mmHg 65%
    22:00 +5°C° 0 mm 3 mps 758 mmHg 67%
    23:00 +5°C° 0 mm 3 mps 758 mmHg 69%

    4 April, Saturday

    Time Temperature Precipitation Wind Pressure Humidity
    00:00 +4°C° 0 mm 3 mps 758 mmHg 71%
    01:00 +5°C° 0 mm 2 mps 758 mmHg 73%
    02:00 +5°C° 0 mm 2 mps 758 mmHg 75%
    03:00 +5°C° 0 mm 2 mps 758 mmHg 76%
    04:00 +6°C° 0 mm 1 mps 758 mmHg 77%
    05:00 +6°C° 0 mm 1 mps 759 mmHg 79%
    06:00 +7°C° 0 mm 1 mps 759 mmHg 75%
    07:00 +9°C° 0 mm 1 mps 759 mmHg 71%
    08:00 +9°C° 0 mm 0 mps 760 mmHg 67%
    09:00 +12°C° 0 mm 1 mps 760 mmHg 64%
    10:00 +13°C° 0 mm 1 mps 760 mmHg 60%
    11:00 +14°C° 0 mm 2 mps 761 mmHg 57%
    12:00 +15°C° 0 mm 2 mps 761 mmHg 57%
    13:00 +15°C° 0 mm 2 mps 761 mmHg 56%
    14:00 +14°C° 0 mm 3 mps 761 mmHg 56%
    15:00 +13°C° 0 mm 3 mps 761 mmHg 58%
    16:00 +12°C° 0 mm 3 mps 761 mmHg 59%
    17:00 +12°C° 0 mm 3 mps 761 mmHg 61%
    18:00 +10°C° 0 mm 2 mps 761 mmHg 65%
    19:00 +9°C° 0 mm 2 mps 762 mmHg 70%
    20:00 +7°C° 0 mm 2 mps 763 mmHg 75%
    21:00 +7°C° 0 mm 2 mps 763 mmHg 74%
    22:00 +6°C° 0 mm 2 mps 763 mmHg 72%
    23:00 +6°C° 0 mm 2 mps 764 mmHg 71%

    5 April, Sunday

    Time Temperature Precipitation Wind Pressure Humidity
    00:00 +6°C° 0 mm 2 mps 764 mmHg 71%
    01:00 +6°C° 0 mm 2 mps 764 mmHg 70%
    02:00 +5°C° 0 mm 3 mps 764 mmHg 69%
    03:00 +4°C° 0 mm 3 mps 764 mmHg 68%
    04:00 +4°C° 0 mm 4 mps 764 mmHg 67%
    05:00 +4°C° 0 mm 4 mps 764 mmHg 66%
    06:00 +6°C° 0 mm 5 mps 764 mmHg 64%
    07:00 +7°C° 0 mm 6 mps 765 mmHg 62%
    08:00 +9°C° 0 mm 6 mps 765 mmHg 60%
    09:00 +10°C° 0 mm 7 mps 765 mmHg 56%
    10:00 +11°C° 0 mm 8 mps 765 mmHg 53%
    11:00 +12°C° 0 mm 9 mps 765 mmHg 49%
    12:00 +13°C° 0 mm 10 mps 765 mmHg 50%
    13:00 +13°C° 0 mm 10 mps 765 mmHg 51%
    14:00 +13°C° 0 mm 11 mps 764 mmHg 52%
    15:00 +12°C° 0 mm 11 mps 764 mmHg 53%
    16:00 +11°C° 0 mm 11 mps 764 mmHg 54%
    17:00 +9°C° 0 mm 11 mps 764 mmHg 55%
    18:00 +8°C° 0 mm 11 mps 764 mmHg 57%
    19:00 +7°C° 0 mm 10 mps 764 mmHg 59%
    20:00 +6°C° 0 mm 10 mps 764 mmHg 60%
    21:00 +7°C° 0 mm 10 mps 764 mmHg 61%
    22:00 +7°C° 0 mm 11 mps 764 mmHg 63%
    23:00 +7°C° 0 mm 11 mps 764 mmHg 64%

    6 April, Monday

    Time Temperature Precipitation Wind Pressure Humidity
    00:00 +6°C° 0 mm 11 mps 764 mmHg 64%
    01:00 +5°C° 0 mm 12 mps 764 mmHg 64%
    02:00 +5°C° 0 mm 12 mps 765 mmHg 64%
    03:00 +4°C° 0 mm 12 mps 765 mmHg 64%
    04:00 +4°C° 0 mm 12 mps 765 mmHg 64%
    05:00 +3°C° 0 mm 12 mps 765 mmHg 64%
    06:00 +4°C° 0 mm 13 mps 766 mmHg 62%
    07:00 +4°C° 0 mm 13 mps 766 mmHg 61%
    08:00 +4°C° 0 mm 13 mps 766 mmHg 59%
    09:00 +5°C° 0 mm 13 mps 767 mmHg 57%
    10:00 +5°C° 0 mm 13 mps 767 mmHg 54%
    11:00 +6°C° 0 mm 14 mps 767 mmHg 52%
    12:00 +7°C° 0 mm 13 mps 768 mmHg 52%
    13:00 +7°C° 0 mm 13 mps 768 mmHg 52%
    14:00 +7°C° 0 mm 13 mps 768 mmHg 52%
    15:00 +5°C° 0 mm 12 mps 768 mmHg 53%
    16:00 +5°C° 0 mm 12 mps 768 mmHg 54%
    17:00 +4°C° 0 mm 12 mps 768 mmHg 55%
    18:00 +3°C° 0 mm 12 mps 768 mmHg 56%
    19:00 +3°C° 0 mm 11 mps 769 mmHg 57%
    20:00 +2°C° 0 mm 11 mps 769 mmHg 59%
    21:00 +2°C° 0 mm 11 mps 769 mmHg 59%
    22:00 +3°C° 0 mm 10 mps 769 mmHg 60%
    23:00 +3°C° 0 mm 10 mps 769 mmHg 61%
    Show more